Baton Rouge, LA

7:48 PM CDT on May 24, 2017 (GMT -0500)
Baton Rouge Metro-Ryan

Weather History for KBTR - February, 2012

Change the Weather History Date:

Friday, February 10, 2012

  Actual Average Record
Temperature  
Mean Temperature 47 °F 54 °F  
Max Temperature 51 °F 65 °F 83 °F (1957)
Min Temperature 42 °F 44 °F 21 °F (1979)
Degree Days  
Heating Degree Days 18 12  
Month to date heating degree days 67 123  
Since 1 July heating degree days 931 1163  
Cooling Degree Days 0 1  
Month to date cooling degree days 12 8  
Year to date cooling degree days 51 21  
Moisture  
Dew Point 46 °F    
Average Humidity 93    
Maximum Humidity 100    
Minimum Humidity 86    
Precipitation  
Precipitation 0.52 in 0.19 in 2.84 in (1903)
Month to date precipitation 2.68 1.88  
Year to date precipitation 8.43 7.60  
Snow  
Snow 0.00 in - - ()
Month to date snowfall 0.0  
Since 1 July snowfall 0.0  
Snow Depth 0.00 in    
Sea Level Pressure  
Sea Level Pressure 30.12 in    
Wind  
Wind Speed 3 mph (North)    
Max Wind Speed 8 mph    
Max Gust Speed 10 mph    
Visibility 7 miles    
Events Rain    
T = Trace of Precipitation, MM = Missing Value Source: NWS Daily Summary

Daily Weather History Graph

Daily Weather History Graph

Search for Another Location

Airport or City:

Trip Planner

Search our weather history database for the weather conditions in past years. The results will help you decide how hot, cold, wet, or windy it might be!

Date:

Astronomy

Feb. 10, 2012 Rise Set
Actual Time 6:49 AM CST 5:48 PM CST
Civil Twilight 6:24 AM CST 6:13 PM CST
Nautical Twilight 5:56 AM CST 6:41 PM CST
Astronomical Twilight 5:28 AM CST 7:09 PM CST
Moon 9:05 PM CST (2/10) 8:16 AM CST (2/10)
Length of Visible Light 11h 48m
Length of Day
10h 58m
Waning Gibbous, 90% of the Moon is Illuminated
Feb 10
Waning Gibbous
Feb 14
Last Quarter
Feb 21
New
Feb 29
First Quarter
Mar 8
Full

Hourly Weather History & Observations

Time (CST) Temp. Windchill Dew Point Humidity Pressure Visibility Wind Dir Wind Speed Gust Speed Precip Events Conditions
12:53 AM 48.9 °F - 46.0 °F 90% 30.17 in 10.0 mi Calm Calm - 0.00 in   Overcast
1:53 AM 48.0 °F - 46.0 °F 93% 30.19 in 10.0 mi NNW 3.5 mph - 0.00 in   Overcast
2:53 AM 48.0 °F - 45.0 °F 89% 30.16 in 10.0 mi NE 3.5 mph - 0.00 in   Overcast
3:53 AM 48.0 °F - 45.0 °F 89% 30.16 in 10.0 mi ENE 4.6 mph - N/A   Overcast
4:53 AM 46.9 °F - 45.0 °F 93% 30.14 in 9.0 mi NE 4.6 mph - 0.01 in Rain Light Rain
5:53 AM 46.9 °F - 45.0 °F 93% 30.14 in 10.0 mi Calm Calm - 0.01 in   Overcast
6:53 AM 46.9 °F - 45.0 °F 93% 30.12 in 9.0 mi Calm Calm - 0.00 in   Overcast
7:53 AM 48.0 °F - 46.0 °F 93% 30.13 in 7.0 mi East 4.6 mph - N/A   Overcast
8:53 AM 48.9 °F - 45.0 °F 86% 30.14 in 8.0 mi ESE 4.6 mph - 0.00 in Rain Light Rain
9:53 AM 48.9 °F - 46.0 °F 90% 30.14 in 5.0 mi Calm Calm - 0.00 in Rain Light Rain
10:53 AM 48.9 °F - 46.9 °F 93% 30.14 in 2.0 mi NW 4.6 mph - 0.02 in Rain Rain
11:53 AM 48.9 °F - 48.0 °F 97% 30.12 in 2.0 mi Calm Calm - 0.14 in Rain Rain
12:17 PM 48.2 °F - 48.2 °F 100% 30.12 in 1.5 mi WNW 4.6 mph - 0.05 in Rain Heavy Rain
12:45 PM 48.2 °F - 48.2 °F 100% 30.12 in 3.0 mi NW 5.8 mph - 0.14 in Rain Rain
12:53 PM 48.9 °F - 48.0 °F 97% 30.11 in 3.0 mi NNW 6.9 mph - 0.14 in Rain Light Rain
1:53 PM 48.9 °F - 48.0 °F 97% 30.06 in 2.5 mi NE 3.5 mph - 0.13 in Rain Rain
2:53 PM 50.0 °F - 48.0 °F 93% 30.05 in 8.0 mi NE 4.6 mph - 0.07 in   Overcast
3:53 PM 50.0 °F - 48.0 °F 93% 30.05 in 8.0 mi Calm Calm - 0.00 in   Overcast
4:53 PM 51.1 °F - 48.0 °F 89% 30.05 in 8.0 mi Calm Calm - N/A   Overcast
5:44 PM 50.0 °F - 48.2 °F 94% 30.07 in 10.0 mi Calm Calm - N/A   Mostly Cloudy
5:53 PM 50.0 °F - 48.0 °F 93% 30.08 in 9.0 mi NNW 3.5 mph - N/A   Overcast
6:49 PM 48.2 °F - 46.4 °F 93% 30.11 in 10.0 mi NNW 3.5 mph - N/A   Partly Cloudy
6:53 PM 48.9 °F - 46.9 °F 93% 30.11 in 10.0 mi NNW 3.5 mph - N/A   Partly Cloudy
7:11 PM 48.2 °F - 46.4 °F 93% 30.11 in 10.0 mi Calm Calm - N/A   Mostly Cloudy
7:53 PM 48.9 °F - 46.9 °F 93% 30.13 in 10.0 mi Calm Calm - N/A   Overcast
8:41 PM 46.4 °F - 46.4 °F 100% 30.11 in 1.8 mi Calm Calm - N/A   Clear
8:53 PM 45.0 °F - 44.1 °F 97% 30.12 in 10.0 mi Calm Calm - N/A   Clear
9:53 PM 44.1 °F - 43.0 °F 96% 30.12 in 7.0 mi Calm Calm - N/A   Partly Cloudy
10:53 PM 45.0 °F 43.5 °F 44.1 °F 97% 30.15 in 7.0 mi NNW 3.5 mph - N/A   Scattered Clouds
11:24 PM 44.6 °F 42.2 °F 44.6 °F 100% 30.18 in 7.0 mi West 4.6 mph - N/A   Mostly Cloudy
11:53 PM 46.9 °F - 46.0 °F 97% 30.15 in 7.0 mi NNW 4.6 mph - N/A   Overcast